FENGYUN 1C DEB

Satellite information

Favourite Embed

Satellite Type and Status

DEBRISIN ORBIT

Key statistics

Satellite FENGYUN 1C DEB at a glance.

Uptime

9715

Days in orbit

Revolutions

≈ 14.3

Per day

Orbit

SSO

Sun Synchronous Orbit

Inclination

98.9

Latest

Satellite identification and parameters

Extended collection of information and parameters for FENGYUN 1C DEB.

Object identification

Identified? True

Debris? True

Object name: FENGYUN 1C DEB

International designator: 1999-025AZW

Object number (NORAD): 30932

Object ID (CCSDS): 30932

Country: PEOPLES REPUBLIC OF CHINA (PRC)

Current information (Y/N): Y

RCS size: SMALL

Orbital parameters

Period: 100.927 minutes

Inclination: 98.9068 deg

SMA: 7180.65 km

Apoapsis: 844.457 km

Periapsis: 760.573 km

RAAN: 278.1292 deg

Eccentricy: 0.00584099

Argument of periapsis: 298.3506 deg

Mean anomaly: 61.1791 deg

Mean motion: 14.2678024 rev/day

Mean motion (dot): 0.00014536 rev/day2

B* drag term: 0.005899767 1/REarth

Two-line elements (TLE)

Creation date: Dec. 11, 2025, 7:14 p.m.

Reference frame: TEME

Reference center: EARTH

Epoch: Dec. 11, 2025, 6:04 a.m. UTC

TLE line 0: 0 FENGYUN 1C DEB

TLE line 1: 1 30932U 99025AZW 25345.25281587 .00014536 00000-0 58998-2 0 9999

TLE line 2: 2 30932 98.9068 278.1292 0058410 298.3506 61.1791 14.26780240963738

Live tracking on map

Real-time ground track for satellite FENGYUN 1C DEB.

In-orbit conjunctions

A list of the most updated potential collisions computed for object FENGYUN 1C DEB.

Target Orbit TCA Probability of collision Miss distance Type
COSMOS 2322 LEO 2025-12-05 15:55:06 0.0007260208 194.0 (m) PAYLOAD
COSMOS 2251 DEB LEO 2024-09-28 01:31:02 0.0001469368 277.0 (m) DEBRIS
COSMOS 1375 DEB LEO 2024-09-26 15:52:30 0.0004379409 973.0 (m) DEBRIS
CZ-6A DEB SSO 2024-09-26 15:05:48 0.0002056786 878.0 (m) DEBRIS

Associated space launch

Chinese polar orbiting meteorological satellite

FENGYUN 1C DEB was lifted into orbit during the mission ‘Long March 4B | Feng Yun 1C’, on board a Long March 4B space rocket.

The launch took place on May 10, 1999, 1:33 a.m. from Launch Complex 7.

For more information about the launch, click the button.

Launch to space Long March 4B | Feng Yun 1C
Long March 4B | Feng Yun 1C

Agency: N/A

Status: Launch Successful

Launch date: May 10, 1999, 1:33 a.m. UTC

Rocket: Long March 4B

Launch pad: Launch Complex 7

Location: Taiyuan Satellite Launch Center, People's Republic of China

...

Latest news about this satellite

There are no fresh news available about this satellite. Check back as we update our databases every day.


Newsletter sign-up

Weekly statistics, charts and insights to help you stay on top of the space industry.